Paducah, KY

7:24 AM CDT on October 23, 2019 (GMT -0500)
Barkley Regional

Weather History for KPAH - September, 2019

Change the Weather History Date:

Friday, September 20, 2019

  Actual Average Record
Temperature  
Mean Temperature 79 °F 68 °F  
Max Temperature 90 °F 81 °F 97 °F (2018)
Min Temperature 68 °F 56 °F 41 °F (1991)
Degree Days  
Heating Degree Days 0 2  
Month to date heating degree days 0 9  
Since 1 July heating degree days 0 10  
Cooling Degree Days 14 5  
Month to date cooling degree days 263 150  
Year to date cooling degree days 1688 1463  
Growing Degree Days 30 (Base 50)    
Moisture  
Dew Point 67 °F    
Average Humidity 69    
Maximum Humidity 90    
Minimum Humidity 47    
Precipitation  
Precipitation T in 0.12 in 3.38 in (1954)
Month to date precipitation T 2.41  
Year to date precipitation 55.81 34.89  
Snow  
Snow 0.00 in 0.00 in 0.00 in (2002)
Month to date snowfall 0.0 0.0  
Since 1 July snowfall 0.0 0.0  
Since 1 September snowfall 0.0 0.0  
Snow Depth 0.00 in    
Sea Level Pressure  
Sea Level Pressure 30.12 in    
Wind  
Wind Speed 5 mph (South)    
Max Wind Speed 15 mph    
Max Gust Speed 22 mph    
Visibility 9 miles    
Events      
T = Trace of Precipitation, MM = Missing Value Source: NWS Daily Summary

Daily Weather History Graph

Daily Weather History Graph

Search for Another Location

Airport or City:

Astronomy

Sep. 20, 2019 Rise Set
Actual Time 6:41 AM CDT 6:55 PM CDT
Civil Twilight 6:15 AM CDT 7:21 PM CDT
Nautical Twilight 5:44 AM CDT 7:51 PM CDT
Astronomical Twilight 5:13 AM CDT 8:22 PM CDT
Moon 10:53 PM CDT (9/20) 12:37 PM CDT (9/20)
Length of Visible Light 13h 06m
Length of Day
12h 14m
Waning Gibbous, 65% of the Moon is Illuminated
Sep 20
Waning Gibbous
Sep 21
Last Quarter
Sep 28
New
Oct 5
First Quarter
Oct 13
Full

Hourly Weather History & Observations

Time (CDT) Temp. Heat Index Dew Point Humidity Pressure Visibility Wind Dir Wind Speed Gust Speed Precip Events Conditions
12:53 AM 75.0 °F - 69.1 °F 82% 30.06 in 9.0 mi SW 3.5 mph - N/A   Clear
1:53 AM 72.0 °F - 68.0 °F 87% 30.07 in 8.0 mi Calm Calm - N/A   Clear
2:53 AM 70.0 °F - 66.9 °F 90% 30.08 in 6.0 mi SE 3.5 mph - N/A   Clear
3:53 AM 69.1 °F - 66.9 °F 93% 30.08 in 4.0 mi East 3.5 mph - N/A   Scattered Clouds
4:53 AM 71.1 °F - 68.0 °F 90% 30.09 in 6.0 mi SE 4.6 mph - N/A   Scattered Clouds
5:44 AM 72.0 °F - 69.1 °F 91% 30.11 in 6.0 mi SE 4.6 mph - N/A   Overcast
5:53 AM 73.0 °F - 69.1 °F 87% 30.10 in 7.0 mi SE 8.1 mph - N/A   Overcast
5:55 AM 73.0 °F - 69.1 °F 87% 30.12 in 7.0 mi SE 6.9 mph - N/A   Overcast
6:53 AM 73.0 °F - 68.0 °F 84% 30.12 in 7.0 mi South 6.9 mph - N/A   Mostly Cloudy
7:53 AM 75.0 °F - 66.0 °F 73% 30.14 in 9.0 mi South 8.1 mph - N/A   Scattered Clouds
8:31 AM 75.9 °F - 64.9 °F 69% 30.16 in 10.0 mi South 10.4 mph 20.7 mph N/A   Overcast
8:46 AM 77.0 °F - 64.9 °F 66% 30.16 in 10.0 mi South 10.4 mph 20.7 mph N/A   Mostly Cloudy
8:53 AM 78.1 °F - 64.9 °F 64% 30.15 in 10.0 mi South 10.4 mph 18.4 mph N/A   Mostly Cloudy
9:53 AM 80.1 °F 82.1 °F 66.0 °F 62% 30.15 in 10.0 mi South 12.7 mph 19.6 mph N/A   Clear
10:53 AM 82.0 °F 84.1 °F 66.0 °F 58% 30.16 in 10.0 mi SSW 9.2 mph 20.7 mph N/A   Mostly Cloudy
11:53 AM 82.9 °F 85.0 °F 66.0 °F 56% 30.15 in 10.0 mi Variable 6.9 mph - N/A   Overcast
12:53 PM 84.9 °F 87.1 °F 66.0 °F 53% 30.14 in 10.0 mi SW 8.1 mph - N/A   Overcast
1:53 PM 88.0 °F 90.3 °F 66.0 °F 48% 30.12 in 10.0 mi WSW 10.4 mph 16.1 mph N/A   Mostly Cloudy
2:53 PM 89.1 °F 92.1 °F 66.9 °F 48% 30.11 in 10.0 mi South 6.9 mph - N/A   Partly Cloudy
3:53 PM 86.0 °F 87.6 °F 64.9 °F 49% 30.09 in 10.0 mi South 4.6 mph - N/A   Scattered Clouds
4:53 PM 84.0 °F 87.0 °F 68.0 °F 58% 30.09 in 10.0 mi Calm Calm - N/A   Clear
5:53 PM 82.9 °F 85.0 °F 66.0 °F 56% 30.10 in 7.0 mi SSW 3.5 mph - N/A   Mostly Cloudy
6:53 PM 80.1 °F 82.1 °F 66.0 °F 62% 30.11 in 10.0 mi WSW 4.6 mph - N/A   Clear
7:53 PM 75.9 °F - 69.1 °F 79% 30.12 in 10.0 mi Calm Calm - 0.00 in   Scattered Clouds
8:53 PM 75.0 °F - 70.0 °F 84% 30.13 in 10.0 mi Calm Calm - N/A   Clear
9:53 PM 75.0 °F - 70.0 °F 84% 30.14 in 10.0 mi Calm Calm - N/A   Clear
10:53 PM 77.0 °F - 66.0 °F 69% 30.13 in 10.0 mi SSW 4.6 mph - N/A   Clear